Location: Richmond
(37.5536°N, 77.4606°W)
Time: 11:52:03
(UTC-04:00)

ISS - Visible Passes

Search period start: 23 July 2014 00:00
Search period end: 02 August 2014 00:00
Orbit: 411 x 419 km, 51.6° (Epoch: 23 July)

Date Brightness Start Highest point End Pass type
(mag) Time Alt. Az. Time Alt. Az. Time Alt. Az.
23 Jul -0.8 03:48:38 16° NW 03:49:21 16° NNW 03:51:36 10° NNE visible
24 Jul -0.6 03:01:31 19° N 03:01:31 19° N 03:03:10 10° NNE visible
25 Jul 0.2 02:14:24 11° NNE 02:14:24 11° NNE 02:14:37 10° NE visible
25 Jul -0.1 03:48:37 10° NNW 03:49:00 10° NNW 03:49:23 10° N visible
26 Jul -0.2 03:00:06 13° NNW 03:00:06 13° NNW 03:01:34 10° N visible
27 Jul 0.3 02:12:56 11° NNE 02:12:56 11° NNE 02:13:15 10° NNE visible
27 Jul 0.1 05:26:05 10° N 05:26:51 11° NNE 05:27:36 10° NNE visible
29 Jul -0.3 05:24:06 10° NNW 05:26:27 17° NNE 05:28:47 10° ENE visible
30 Jul 0.0 04:35:46 10° N 04:37:25 13° NNE 04:39:03 10° NE visible
31 Jul 0.3 03:48:00 10° N 03:48:20 10° NNE 03:48:39 10° NNE visible
31 Jul -1.5 05:22:42 10° NW 05:25:50 35° NNE 05:28:58 10° ESE visible
01 Aug -0.7 04:34:09 10° NNW 04:36:55 23° NNE 04:39:40 10° E visible
01 Aug -1.5 21:15:52 10° S 21:17:18 16° SSE 21:17:18 16° SSE visible
